Neu HILFE - Drucker spinnt W 2012 R2 - Rechnungsdruck bricht ab !!!!

  • Hotfix veröffentlicht! Mit Update auf 1.5.41.0 war ein Connector-Abgleich nicht immer möglich. Hierfür wurde soeben die Hotfixversion 1.5.41.3 veröffentlicht. Für weitere Informationen: https://forum.jtl-software.de/threads/abgleich-mit-dem-jtl-connector-nach-update-auf-1-5-41-0-nicht-mehr-moeglich.153070/

dynamic-pro

Aktives Mitglied
17. Juli 2012
77
0
Hallo,

habe ein seltsames Problem mein Drucker bricht immer nach zwei Rechnungen zu drucken ab !

Jedoch nur wenn ich per Remote Desktop verbunden bin. Ein lokaler Rechner
mit Verbindung zur Internet DB funktioniert ohne Probleme !!!

Habe schon alles mögliche probiert aber finde nichts.
Zudem Wird immer eine WawiPrinLog Datei auf dem Desktop abgelegt.

Facts :
Wawi auf einen virtuellen Windows Server 2012 R2 installiert

Wer kann helfen ???

Mfg
Siggi
 

dynamic-pro

Aktives Mitglied
17. Juli 2012
77
0
Das wären die ersten Zeilen :

CMLL20 : 09:22:54.051 00000bec/00 3 [] »*LS:LsSetDebug(1)
CMLL20 : 09:22:54.051 00000bec/00 4 [] >LlGetOptionString(2,43,1ff08010,16384)
CMLL20 : 09:22:54.051 00000bec/00 5 [] <LlGetOptionString() -> 0 (00000000) ['C:\Users\Administrator\Desktop\WawiPrintLog_20160816092252.txt']
CMLL20 : 09:22:54.051 00000bec/00 6 [] >LlDefineVariableExt(2,'Ausgabe.DeviceType','DRUCK',0x10000000,00000000)
CMLL20 : 09:22:54.051 00000bec/00 7 [] <LlDefineVariableExt() -> 0 (00000000)
CMLL20 : 09:22:54.051 00000bec/00 8 [] >LlDefineVariableExt(2,'Ausgabe.FaxSendung.Faxnummer','',0x10000000,00000000)
CMLL20 : 09:22:54.066 00000bec/00 9 [] <LlDefineVariableExt() -> 0 (00000000)
CMLL20 : 09:22:54.066 00000bec/00 0 [] >LlDefineVariableExt(2,'Ausgabe.FaxSendung.Empfänger','',0x10000000,00000000)
CMLL20 : 09:22:54.066 00000bec/00 1 [] <LlDefineVariableExt() -> 0 (00000000)
CMLL20 : 09:22:54.066 00000bec/00 2 [] >LlDefineVariableExt(2,'Ausgabe.FaxSendung.IstFax','0',0x02000000,00000000)
CMLL20 : 09:22:54.066 00000bec/00 3 [] <LlDefineVariableExt() -> 0 (00000000)
CMLL20 : 09:22:54.066 00000bec/00 4 [] >LlSetPrinterInPrinterFileW(2,32770,'C:\Users\Administrator\AppData\Roaming\jtl-software\Vorlagen30\558\20160812171040\2_v2_tmp.lst',-1,'OKI C321dn (PCL)',00000000)
CMLL20 : 09:22:54.066 00000bec/00 5 [] >clsOutputDeviceManager::Close()
CMLL20 : 09:22:54.066 00000bec/00 6 [] >clsOutputDeviceManager::ResetDevices()
CMLL20 : 09:22:54.066 00000bec/00 7 [] <clsOutputDeviceManager::ResetDevices()
CMLL20 : 09:22:54.066 00000bec/00 8 [] <clsOutputDeviceManager::Close()
CMLL20 : 09:22:54.066 00000bec/00 9 [] >clsOutputDeviceManager::Close()
CMLL20 : 09:22:54.066 00000bec/00 0 [] >clsOutputDeviceManager::ResetDevices()
CMLL20 : 09:22:54.066 00000bec/00 1 [] <clsOutputDeviceManager::ResetDevices()
CMLL20 : 09:22:54.066 00000bec/00 2 [] <clsOutputDeviceManager::Close()
CMLL20 : 09:22:54.066 00000bec/00 3 [] Printer 'OKI C321dn (redirected 2)' is in PAI -> available=1
CMLL20 : 09:22:54.082 00000bec/00 4 [] Printer 'OKI C321dn (PCL)' is in PAI -> available=1
CMLL20 : 09:22:54.082 00000bec/00 5 [] removing the DM_ORIENTATION flag from DEVMODE as this is defined by the project
CMLL20 : 09:22:54.082 00000bec/00 6 [] >clsOutputDeviceManager::Clear()
CMLL20 : 09:22:54.082 00000bec/00 7 [] >clsOutputDeviceManager::ResetDevices()
CMLL20 : 09:22:54.082 00000bec/00 8 [] <clsOutputDeviceManager::ResetDevices()
CMLL20 : 09:22:54.082 00000bec/00 9 [] <clsOutputDeviceManager::Clear()
CMLL20 : 09:22:54.082 00000bec/00 0 [] Printer 'OKI C321dn (redirected 2)' is in PAI -> available=1
CMLL20 : 09:22:54.082 00000bec/00 1 [] Printer 'OKI C321dn (PCL)' is in PAI -> available=1
CMLL20 : 09:22:54.098 00000bec/00 2 [] Printer 'OKI C321dn (PCL)' is in PAI -> available=1
CMLL20 : 09:22:54.098 00000bec/00 3 [] >clsOutputDeviceManager::Clear()
CMLL20 : 09:22:54.098 00000bec/00 4 [] >clsOutputDeviceManager::ResetDevices()
CMLL20 : 09:22:54.098 00000bec/00 5 [] <clsOutputDeviceManager::ResetDevices()
CMLL20 : 09:22:54.098 00000bec/00 6 [] <clsOutputDeviceManager::Clear()
CMLL20 : 09:22:54.098 00000bec/00 7 [] <LlSetPrinterInPrinterFileW() -> 0 (00000000)
CMLL20 : 09:22:54.098 00000bec/00 8 [] >LlGetOption(2,135)
CMLL20 : 09:22:54.098 00000bec/00 9 [] <LlGetOption() -> 1 (0X00000001)
CMLL20 : 09:22:54.098 00000bec/00 0 [] >LlSetOption(2,162,0X00000001)
CMLL20 : 09:22:54.098 00000bec/00 1 [] <LlSetOption() -> 0 (00000000)
CMLL20 : 09:22:54.098 00000bec/00 2 [] >LlSetOption(2,234,0X00000001)
CMLL20 : 09:22:54.098 00000bec/00 3 [] <LlSetOption() -> 0 (00000000)
CMLL20 : 09:22:54.098 00000bec/00 4 [] >LlSetOption(2,235,0X00000001)
CMLL20 : 09:22:54.098 00000bec/00 5 [] <LlSetOption() -> 0 (00000000)
CMLL20 : 09:22:54.098 00000bec/00 6 [] >LlSetOption(2,237,0X00000001)
CMLL20 : 09:22:54.098 00000bec/00 7 [] <LlSetOption() -> 0 (00000000)
CMLL20 : 09:22:54.098 00000bec/00 8 [] >LlPreviewSetTempPath(2,'C:\Users\Administrator\AppData\Local\Temp\2\')
CMLL20 : 09:22:54.098 00000bec/00 9 [] <LlPreviewSetTempPath() -> 0 (00000000)
CMLL20 : 09:22:54.113 00000bec/00 0 [] >LlGetUsedIdentifiersEx(2,'C:\Users\Administrator\AppData\Roaming\jtl-software\Vorlagen30\558\20160812171040\2_v2_tmp.lst',0x00000007,0X10BB5A70,32768)
 

dynamic-pro

Aktives Mitglied
17. Juli 2012
77
0
... später reletiv am Ende kommt dann noch das :

CMLL20 : 09:23:10.358 00000bec/01 0 [] <LlPrintGetOption() -> 2147483647 (0X7FFFFFFF)
CMLL20 : 09:23:10.358 00000bec/01 1 [] >LlPrintEnd(2,0)
CMLL20 : 09:23:10.358 00000bec/01 2 [] >@NOTIF.(code= 21, param=0X129AECC4, user=00000000)
CMLL20 : 09:23:10.358 00000bec/01 3 [] <@NOTIF.(code= 21) -> 00000000
CMLL20 : 09:23:10.358 00000bec/01 4 [] >OpenForPRN(page=1, lastpage=1)
CMLL20 : 09:23:10.358 00000bec/01 5 [] <OpenForPRN(page=1) -> 'OKI C321dn (PCL)' (from 'Standard-Layout')
CMLL20 : 09:23:10.358 00000bec/01 6 [] >OptimizedDevice('OKI C321dn (PCL)','<NULL>')
CMLL20 : 09:23:10.358 00000bec/01 7 [] Printer 'OKI C321dn (PCL)' is in PAI -> available=1
CMLL20 : 09:23:10.358 00000bec/00 8 [] >@NOTIF.(code= 52, param=0X129AEA88, user=00000000)
CMLL20 : 09:23:10.358 00000bec/00 9 [] <@NOTIF.(code= 52) -> 00000000
CMLL20 : 09:23:10.358 00000bec/00 0 [] <OptimizedDevice() -> 'OKI C321dn (PCL)'
CMLL20 : 09:23:10.358 00000bec/00 1 [] >@NOTIF.(code= 87, param=0X0000005B, user=00000000)
CMLL20 : 09:23:10.358 00000bec/00 2 [] <@NOTIF.(code= 87) -> 00000000
CMLL20 : 09:23:10.358 00000bec/00 3 [] >@NOTIF.(code= 87, param=0X00000064, user=00000000)
CMLL20 : 09:23:10.358 00000bec/00 4 [] <@NOTIF.(code= 87) -> 00000000
CMLL20 : 09:23:10.358 00000bec/00 5 [] >@NOTIF.(code= 37, param=0X129AEC08, user=00000000)
CMLL20 : 09:23:10.358 00000bec/00 6 [] <@NOTIF.(code= 37) -> 00000000
CMLL20 : 09:23:10.358 00000bec/00 7 [] >@NOTIF.(code= 37, param=0X129AEC08, user=00000000)
CMLL20 : 09:23:10.373 00000bec/00 8 [] <@NOTIF.(code= 37) -> 00000000
CMLL20 : 09:23:10.373 00000bec/01 9 [] >@NOTIF.(code= 57, param=0XE546136F, user=00000000)
CMLL20 : 09:23:10.373 00000bec/01 0 [] <@NOTIF.(code= 57) -> 00000000
CMLL20 : 09:23:10.373 00000bec/01 1 [] >@NOTIF.(code= 57, param=0X6F4615BF, user=00000000)
CMLL20 : 09:23:10.373 00000bec/01 2 [] <@NOTIF.(code= 57) -> 00000000
CMLL20 : 09:23:10.373 00000bec/01 3 [] >OptimizedDevice('OKI C321dn (PCL)','OKI C321dn (PCL)')
CMLL20 : 09:23:10.373 00000bec/01 4 [] Printer 'OKI C321dn (PCL)' is in PAI -> available=1
CMLL20 : 09:23:10.373 00000bec/00 5 [] found one with the same DEVMODE, use it
CMLL20 : 09:23:10.389 00000bec/01 6 [] <OptimizedDevice() -> 'OKI C321dn (PCL)'
CMLL20 : 09:23:10.405 00000bec/01 7 [] StartDoc(F4210527) failed: Das System kann den angegebenen Pfad nicht finden. (00000003)
CMLL20 : 09:23:10.467 00000bec/01 8 [] StartDoc(F4210527) failed: Das System kann den angegebenen Pfad nicht finden. (00000003)
CMLL20 : 09:23:10.483 00000bec/00 9 [] >@NOTIF.(code= 37, param=0X129AEC08, user=00000000)
CMLL20 : 09:23:10.483 00000bec/00 0 [] <@NOTIF.(code= 37) -> 00000000
CMLL20 : 09:23:10.483 00000bec/00 1 [] >@NOTIF.(code= 87, param=0XFFFFFFFF, user=00000000)
CMLL20 : 09:23:10.483 00000bec/00 2 [] <@NOTIF.(code= 87) -> 00000000
CMLL20 : 09:23:10.483 00000bec/01 3 [] >clsOutputDeviceManager::Close()
CMLL20 : 09:23:10.483 00000bec/01 4 [] >clsOutputDeviceManager::ResetDevices()
CMLL20 : 09:23:10.499 00000bec/01 5 [] <clsOutputDeviceManager::ResetDevices()
CMLL20 : 09:23:10.499 00000bec/01 6 [] <clsOutputDeviceManager::Close()
CMLL20 : 09:23:10.499 00000bec/01 7 [] >@NOTIF.(code= 87, param=0XFFFFFFFF, user=00000000)
CMLL20 : 09:23:10.499 00000bec/01 8 [] <@NOTIF.(code= 87) -> 00000000
CMLL20 : 09:23:10.499 00000bec/01 9 [] >clsOutputDeviceManager::Clear()
CMLL20 : 09:23:10.499 00000bec/01 0 [] >clsOutputDeviceManager::ResetDevices()
CMLL20 : 09:23:10.499 00000bec/00 1 [] <clsOutputDeviceManager::ResetDevices()
CMLL20 : 09:23:10.514 00000bec/00 2 [] <clsOutputDeviceManager::Clear()
CMLL20 : 09:23:10.530 00000bec/00 3 [] GDI handle count: ∑=408 ∆=1 (some are normal due to caching if it does not increase permanently)
CMLL20 : 09:23:10.530 00000bec/00 4 [] <LlPrintEnd() -> -12 (0XFFFFFFF4) (Während des Druckens ist ein allgemeiner Fehler aufgetreten. Prüfen Sie die Projektdatei und die Datenquelle.)
CMLL20 : 09:23:10.530 00000bec/00 5 [] >LlSetOption(2,53,00000000)
CMLL20 : 09:23:10.545 00000bec/01 6 [] <LlSetOption() -> 0 (00000000)
CMLL20 : 09:23:10.545 00000bec/01 7 [] >LlSetOption(2,253,00000000)
CMLL20 : 09:23:10.545 00000bec/01 8 [] <LlSetOption() -> 0 (00000000)
CMLL20 : 09:23:10.545 00000bec/01 9 [] >LlGetErrortext(-12,0X202C9D38,16384)
CMLL20 : 09:23:10.545 00000bec/01 0 [] <LlGetErrortext() -> 0 (00000000) ['Während des Druckens ist ein allgemeiner Fehler aufgetreten. Prüfen Sie die Projektdatei und die Datenquelle.']
CMLL20 : 09:23:10.545 00000bec/01 1 [] ».NET: caught combit.ListLabel20.LL_Printing_Exception (Während des Druckens ist ein allgemeiner Fehler aufgetreten. Prüfen Sie die Projektdatei und die Datenquelle.).
CMLL20 : 09:23:10.545 00000bec/01 2 [] ».NET: Stack Trace:
CMLL20 : 09:23:10.545 00000bec/01 3 [] » bei combit.ListLabel20.LLException.CheckReturn(Int32 returnValue)

CMLL20 : 09:23:10.545 00000bec/01 4 [] » bei combit.ListLabel20.LlCore.LlPrintEnd(Int32 pages)

CMLL20 : 09:23:10.545 00000bec/01 5 [] » bei combit.ListLabel20.ListLabel.PrintReportFromRelationalDataSource(IDataProvider dataSource, String projectFile, Boolean showFileSelect, LlPrintMode printMode, LlBoxType boxType, IntPtr windowHandle, String dialogTitle, Boolean showPrintOptions, String tempPath)

CMLL20 : 09:23:10.545 00000bec/01 6 [] » bei combit.ListLabel20.ListLabel.AutoPrint(LlProject projectType, String projectFile, Boolean showFileSelect, LlPrintMode printMode, LlBoxType boxType, IntPtr windowHandle, String dialogTitle, Boolean showPrintOptions, String tempPath)
CMLL20 : 09:23:10.545 00000bec/00 7 [] >LlGetOptionString(2,43,202c9d38,16384)
CMLL20 : 09:23:10.545 00000bec/00 8 [] <LlGetOptionString() -> 0 (00000000) ['C:\Users\Administrator\Desktop\WawiPrintLog_20160816092252.txt']
 

Underbär

Gut bekanntes Mitglied
19. Mai 2015
234
16
wird sich mit dem selben user account in die wawi eingeloggt? über remote und lokal?

OKI C321dn (PCL) das müsste dein Drucker sein richtig?
 
Zuletzt bearbeitet:

Underbär

Gut bekanntes Mitglied
19. Mai 2015
234
16
So muss es aussehen in der Rechnungconfig, selber user

drucker.png zeigt es lokal an
drucker2.png zeigt es remote direkt auf dem Server an.

steht bei dir auch das (umgeleitet) wenn du remote angemeldet bist?

drucker.png drucker2.png
 

dynamic-pro

Aktives Mitglied
17. Juli 2012
77
0
... es ist alles korrekt und so eingerichtet wie es bisher auch funktioniert hatte ...

jepp .... das ist der Drucker ... Anhang mal eine vollständige Datei ...

... an der Vorlage kann es auch nicht liegen wurde schon verschiedenes getestet ...
 

bitcon

Offizieller Servicepartner
SPBanner
4. April 2010
164
2
Hi, ja das ist ja das Problem. Genau dieses Update bringt den BUG mit sich. Update deinstallieren, neu starten und dann müsste es wieder gehen.
 

dynamic-pro

Aktives Mitglied
17. Juli 2012
77
0
jepp ... lesen müßte man können ... das scheint es gewesen zu sein ;)
nur komisch das es am lokal PC mit Internet DB funktioniert hat
 

Carsten_Stoffbüro

Aktives Mitglied
3. November 2015
12
1
Hallo,
habe bzw. hatte das gleiche Problem und habe die gleiche "Lösung" gefunden, nur bislang noch nicht umgesetzt.
Frage 1:
Verstehe ich das richtig, dass ich mit der Deinstallation des Updates lediglich das Risiko eingehe, dass ein regulärer Nutzer des Systems sich Admin Rechte verschaffen kann. Heißt also, wenn ich sicher stellen kann, dass alle möglichen Nutzer des Systems vertrauenswürdig und die Passwörter stark genung sind, gehe ich kein Risiko ein.
Frage 2:
Hat jemand erfahrung damit wie lange es dauern kann bis MS diesen Bug durch ein weiteres Update fixed
 
Ähnliche Themen Forum Antworten Erstelldatum des Themas
Beantwortet Brauche Hilfe JTL-Adept_mini eBay-Designvorlagen - Fehler und Bugs 0
Neu Hilfe - Amazon Versandkosten Einrichtung und Installation von JTL-eazyAuction 2
Neu Suchprioriät - Text in Hilfe falsch JTL-Wawi - Fehler und Bugs 0
Issue angelegt Teillieferung in die Schweiz - benötige Hilfe JTL-ShippingLabels - Ideen, Lob und Kritik 6
Neu HILFE: JTL Wawi nimmt Preise von falscher Kundengruppe in Aufträgen JTL-Wawi - Fehler und Bugs 4
Neu price.tpl - WO GREIFT DIESE DATEI ÜBERALL? && TEMPLATE-VERÄNDERUNG, BITTE UM HILFE Templates für JTL-Shop 2
Neu WF/Export Vorlage (csv) - Brauche bitte Hilfe bei der Provisionsabrechnung (Exportdaten->Datei *.csv) Druck-/ E-Mail-/ Exportvorlagen in JTL-Wawi 1
Neu Artikel Im- Export Hilfe User helfen Usern - Fragen zu JTL-Wawi 2
Neu Hilfe zu Automatisierungs-Schritte: Ist es möglich aus einer Lieferantenbestellung die Erstellung eines Auftrages zu automatisieren? Arbeitsabläufe in JTL-Wawi 0
Neu Doppelbedingungen in Formular - Formel kreiert je Währung - Bitte um Hilfe! Druck-/ E-Mail-/ Exportvorlagen in JTL-Wawi 0
Neu DRINGEND HILFE --> Versanddatenexport "aus versehen" / Rückgängig machen User helfen Usern - Fragen zu JTL-Wawi 6
Neu neues Produkt von Shopify >> zu JTL ! Hilfe ?? Shopify-Connector 1
Neu Wir suchen dringend praktische Hilfe für unseren JTL-Webshop Dienstleistung, Jobs und Ähnliches 1
Neu Workflow: brauche dringend Hilfe bei WF User helfen Usern 17
Neu Packtisch + interne Buchung von Hauptlager an Ladenlokahl - HILFE!!!! User helfen Usern - Fragen zu JTL-Wawi 1
Neu HILFE!!! Datumsformat bei Auftrags-Importen mit der Ameise User helfen Usern - Fragen zu JTL-Wawi 1
In Diskussion Hilfe ! WaWi wie wo kann ich die DHL Lable ausdrucken JTL-ShippingLabels - Ideen, Lob und Kritik 3
Neu Hilfe für den nächsten Schritt Dienstleistung, Jobs und Ähnliches 2
Neu Hilfe bei Fehlersuche JTL-Wawi - Fehler und Bugs 2
Neu Hilfe UpDate shop 4 auf 5 JTL-Shop - Fehler und Bugs 2
Neu Bitte um Hilfe bei Lagerbuchungen Arbeitsabläufe in JTL-Wawi 7
Neu Hilfe, Artikeldaten werden nicht mehr aktualisiert Shopware-Connector 14
Neu Hilfe - Ich habe wohl ein inkompatibles Plugin erwischt und nun? JTL-Wawi - Fehler und Bugs 5
Neu Arbeiten nicht mit Staffelpreisen! JTL nimmt sich aber diese Preise! Was TUN HILFE??? JTL-Wawi - Fehler und Bugs 1
Neu DHL Versenden 3.0 Warenpost Retourenetikett aus falschem Drucker JTL-ShippingLabels - Fehler und Bugs 0
In Bearbeitung TSE auf Epson Drucker (inkl. TSE Modul) einrichten JTL-POS - Fragen zu Hardware 5
In Bearbeitung SUNMI D2 mini interner Drucker JTL-POS - Fehler und Bugs 2
In Bearbeitung Epson TM M30 + TSE = Drucker offline JTL-POS - Fehler und Bugs 4
Gelöst SUNMI T2 Terminal mit Jtl Pos Kassenapp ... Drucker nicht auffindbar JTL-POS - Fehler und Bugs 2
Neu Zebra Drucker GK420d GK420t ZD420 User helfen Usern 5
Neu Druck Rechnung verschiedene Layouts mehrere Drucker User helfen Usern - Fragen zu JTL-Wawi 11
Neu Falscher Drucker im Workflow Arbeitsabläufe in JTL-Wawi 1
In Bearbeitung Import der Einstellungen und Drucker JTL-POS - Fehler und Bugs 2
Neu JTL Shipping Label - Versandetiketten im Drucker zentrieren Installation von JTL-Wawi 0
Neu Problem Drucker aus Vorlage Artikeletikett User helfen Usern - Fragen zu JTL-Wawi 1
Gelöst Epson TM T20II - ist dieser Drucker kompatibel? Gelöste Themen in diesem Bereich 2
In Bearbeitung HP Engage Prime Zugriffabfrage auf Drucker HP Engage Prime JTL-POS - Fragen zu Hardware 3
In Bearbeitung Passende Hardware für JTL POS /TABLET / DRUCKER Allgemeine Fragen zu JTL-POS 7
In Bearbeitung TSE-Drucker TM30F Fehlercode JTL-POS - Fehler und Bugs 3
Neu Zebra ZT410 / GK420d Drucker abzugeben Dienstleistung, Jobs und Ähnliches 1
In Diskussion Versanddatenexport Fehler: Die Einstellungen für den Zugriff auf den Drucker sind ungültig. JTL-ShippingLabels - Fehler und Bugs 0
In Bearbeitung funktioniert Epson TM-T88IV Bon Drucker mit Łan mit JTL POS? JTL-POS - Fragen zu Hardware 2
Neu Kaufempfehlung Drucker für Paketbeileger User helfen Usern 10
Neu Drucker nach RDP-Anmeldung überschrieben und umgeleitet... User helfen Usern - Fragen zu JTL-Wawi 3
In Diskussion TSE an anderen Drucker nutzen Einrichtung / Updates von JTL-POS 1
Neu Steuereinstellung spinnt seit gestern - angeblich falsche Einstellungen JTL-Wawi - Fehler und Bugs 10
Ähnliche Themen